FENGYUN 1C DEB, 30172

Orbit data source: Space-Track

FENGYUN 1C DEB, 30172 is space debris in SSO originally from a launch on Mon, 10 May 1999 UTC launched from the Taiyaun Space Center, China (TSC). Fengyun 1C debris stems from the Chinese weather satellite Fengyun-1C, which was intentionally destroyed by a Chinese anti-satellite missile in 2007. This event dramatically increased the amount of space debris, with thousands of trackable fragments posing hazards to satellites and human spaceflight. The Fengyun 1C debris cloud has become a focal point in discussions about space sustainability and the need for international regulations to prevent the creation of new debris.

Loading next visibility...
Identifier
30172, 1999-025UD
Orbit
SSO
Country
Flag of CNCN / PRC
Related business
Manufacturer
Unknown
Mission
Spacecraft
Bus & Motor
Unknown
Mass
Unknown
Launch date (UTC)
1999-05-10 (27 years ago)
Launch vehicle
Unknown
Launch site
Taiyaun Space Center, China (TSC)
Object type
Payload
Rocket body
Debris
Shape & HBR
Unknown shape, 0.1 m
Radar Cross Section
Small (<0.1 m²)

Expand to show TLE details & history
Last TLE update: 22 hours ago

TLE from 22 hours ago
0 FENGYUN 1C DEB
1 30172U 99025UD  26062.55817189  .00004511  00000-0  23879-2 0  9990
2 30172  99.2434  49.1418 0069353 337.1435 144.6711 14.13012885976587
Epoch: 2026-03-03T13:23Z
TLE epoch observation values (Epoch: 2026-03-03T13:23:46.051Z)
Latitude
56.66844°
Longitude
-118.88534°
Altitude
899.522 km
Speed
7.387 km/s
True Right ascension
16h 13m 34s
True Declination
56° 30' 48"
Sunlit
Object was in daylight at epoch
Visualization orbit readout
Latitude
Unknown
Longitude
Unknown
Altitude
Unknown
Speed
Unknown
Apparent Right ascension
Unknown
Apparent Declination
Unknown
Sunlit
N/A
Visualization observer readout
Local Sidereal Time
15:27:19
Azimuth
Unknown
Elevation
Unknown
Doppler factor
Unknown
Orbital elements
Apogee altitude
896.377 km
Perigee altitude
796.17 km
Semi-major axis
7,224.411 km
Eccentricity
0.00694
Inclination
99.2434°
RAAN
49.1418°
Arg. of periapsis
337.1435°
True anomaly
145.12743°
Mean anomaly
144.6711°
Eccentric anomaly
144.89959°
Mean motion
3.53459 °/min
Orbital period
101.85 mins
BSTAR
0.0023879
Loading maneuver chart data...
Computing Atmospheric mass density...

Documentation

Showing up to 5 results
|